Flag for Estonia Weather past 2 weeks in Tartu, Estonia

Now
50 °F

Cool.


Feels Like: 47 °F
Forecast: 46 / 72 °F
Wind: 8 mph from West

Location: Tartu/Ulenurme

Current Time: Aug 4, 2015 at 2:48:14 AM

Latest Report: Aug 4, 2015 at 1:50 AM


Visibility: N/A

Pressure: 30.18 "Hg

Humidity: 88%

Dew point: 46 °F

Location of TartuLocation

Historic Weather in Tartu — Graph

°F

Tartu temperature yesterday

Maximum temperature yesterday: 72 °F (at 3:50 PM)
Minimum temperature yesterday: 54 °F (at 2:50 AM)
Average temperature yesterday: 61 °F

Past Weeks' High & Low Weather Summary

 TemperatureHumidityPressure
High77 °F (Jul 26, 3:50 PM)94% (Jul 20, 5:50 PM)30.18 "Hg (Jul 20, 5:50 PM)
Low46 °F (Jul 28, 2:50 AM)40% (Jul 28, 12:50 PM)29.50 "Hg (Jul 29, 4:50 AM)
Average60 °F75%29.77 "Hg
* Reported Jul 20 1:50 AM — Aug 4 1:50 AM, Tartu, Weather by CustomWeather, © 2015

Note: Actual official high and low records may vary slightly from our data, if they occured in-between our weather recording intervals... More about our weather records

Advertising

Tartu weather history for previous 24 hours

 ConditionsComfort  
Time TempWeatherWind HumidityBarometerVisibility
1:50 AM
Tue, Aug 4
50 °FCool.8 mph88%30.18 "HgN/A
12:50 AM54 °FCool.6 mph82%30.15 "HgN/A
11:50 PM
Mon, Aug 3
54 °FCool.7 mph82%30.15 "HgN/A
10:50 PM55 °FCool.6 mph77%30.15 "HgN/A
9:50 PM57 °FCool.6 mph72%30.15 "HgN/A
8:50 PM63 °FMild.6 mph56%30.12 "HgN/A
6:50 PM70 °FPassing clouds.12 mph40%30.12 "HgN/A
5:50 PM70 °FPassing clouds.13 mph43%30.12 "HgN/A
4:50 PM70 °FScattered clouds.13 mph43%30.09 "HgN/A
3:50 PM72 °FScattered clouds.13 mph44%30.09 "HgN/A
2:50 PM70 °FScattered clouds.12 mph53%30.09 "HgN/A
1:50 PM68 °FPartly sunny.8 mph60%30.09 "HgN/A
12:50 PM68 °FPartly sunny.10 mph60%30.09 "HgN/A
11:50 AM66 °FScattered clouds.12 mph60%30.09 "HgN/A
10:50 AM63 °FScattered clouds.12 mph73%30.09 "HgN/A
9:50 AM61 °FScattered clouds.12 mph68%30.07 "HgN/A
8:50 AM57 °FScattered clouds.7 mph77%30.07 "HgN/A
7:50 AM57 °FPartly sunny.9 mph82%30.07 "HgN/A
6:50 AM57 °FDrizzle. Overcast.8 mph82%30.07 "HgN/A
5:50 AM57 °FPassing clouds.8 mph77%30.07 "HgN/A
4:50 AM55 °FOvercast.6 mph82%30.07 "HgN/A
3:50 AM55 °FOvercast.7 mph82%30.09 "HgN/A
2:50 AM54 °FOvercast.7 mph88%30.09 "HgN/A
Weather by CustomWeather, © 2015

See weather overviewHow to use our weather pages